Hourly Data Report for October 27, 2016

All times are specified in Local Standard Time (LST). Add 1 hour to adjust for Daylight Saving Time where and when it is observed.

RANKIN INLET A
NUNAVUT

62°48'38.000" N
92°06'53.000" W
32.30 m
2303405
71083
YRT

Download Data

Hourly Data (October 2016)
Hourly Data Report for October 27, 2016
Temp Definition
°C
Dew Point Temp Definition
°C
Rel Hum Definition
%
Wind Dir Definition
10's deg

Wind Spd Definition
km/h
Visibility Definition
km
Stn Press Definition
kPa
Hmdx Definition


Wind Chill Definition


Weather Definition


TIME
00:00 Legend Double Dagger -10.0 -11.1 92 31 14 1.2 101.61   -16 Fog
01:00 Legend Double Dagger -10.2 -11.3 92 34 11 3.2 101.59   -16 Fog
02:00 Legend Double Dagger -8.4 -9.3 93 29 12 3.2 101.56   -14 Fog
03:00 Legend Double Dagger -7.9 -8.8 93 35 8 3.6 101.51   -12 Fog
04:00 Legend Double Dagger -7.6 -8.5 93 28 11 3.6 101.44   -13 Fog
05:00 Legend Double Dagger -6.7 -7.7 93 27 5 4.0 101.39   -9 Fog
06:00 Legend Double Dagger -7.6 -8.5 93 24 8 24.1 101.35   -12 Mostly Cloudy
07:00 Legend Double Dagger -7.8 -8.7 93 28 10 19.3 101.37   -13 LegendNANA
08:00 Legend Double Dagger -6.6 -7.4 94 29 11 16.1 101.34   -12 LegendNANA
09:00 Legend Double Dagger -7.1 -8.1 93 33 9 16.1 101.30   -11 Snow
10:00 Legend Double Dagger -6.5 -7.5 93 34 9 12.9 101.26   -11 Snow
11:00 Legend Double Dagger -6.1 -7.1 93 32 5 9.7 101.23   -9 Snow
12:00 Legend Double Dagger -5.8 -6.6 94 36 10 4.8 101.19   -10 Snow
13:00 Legend Double Dagger -5.4 -6.2 94 1 9 1.6 101.15   -9 Snow,Fog
14:00 Legend Double Dagger -5.4 -6.2 94 2 13 1.6 101.11   -11 Snow,Fog
15:00 Legend Double Dagger -5.4 -6.2 94 1 12 1.6 101.08   -10 Snow,Fog
16:00 Legend Double Dagger -5.1 -5.9 94 1 18 1.6 101.06   -11 Snow
17:00 Legend Double Dagger -5.4 -6.2 94 2 19 1.6 101.10   -12 Snow
18:00 Legend Double Dagger -5.7 -6.5 94 3 22 1.6 101.07   -13 Snow
19:00 Legend Double Dagger -6.7 -7.9 91 4 23 4.8 101.08   -14 Snow
20:00 Legend Double Dagger -11.4 -12.9 89 36 15 16.1 101.12   -18 Snow
21:00 Legend Double Dagger -12.8 -14.4 88 35 20 19.3 101.12   -21 Snow
22:00 Legend Double Dagger -12.6 -14.1 89 1 23 19.3 101.14   -22 Snow
23:00 Legend Double Dagger -12.6 -14.1 89 36 25 19.3 101.12   -22 Snow

Notes on Data Quality.

Legend

  • E = Estimated
  • M = Missing
  • NA = Not Available
  • ‡ = Partner data that is not subject to review by the National Climate Archives
Date modified: